Regional Weather Roundup
Issued by NWS

Home | Current Version | Previous Version | Graphics & Text | Print | Product List | Glossary On
Versions: 1 2 3 4 5 6 7 8 9 10 11 12 13 14 15 16 17 18 19 20 21 22 23 24 25 26 27 28 29 30 31 32 33 34 35 36 37 38 39 40 41 42 43 44 45 46 47 48 49 50
037
ASUS43 KDMX 160806
RWRIA

WEATHER ROUNDUP FOR IOWA
NATIONAL WEATHER SERVICE DES MOINES IA
200 AM CST MON JAN 16 2017

NOTE: "FAIR" INDICATES FEW OR NO CLOUDS BELOW 12,000 FEET WITH NO
SIGNIFICANT WEATHER AND/OR OBSTRUCTIONS TO VISIBILITY.

* - THESE STATIONS ARE NOT NWS STATIONS...THUS NOT UNDER NWS
QUALITY CONTROL.  THEY ALSO DO NOT REPORT WEATHER SUCH
AS PRECIPITATION OR FOG.

IAZ001>003-012>014-020>022-031>034-043>046-160900-
   NORTHWEST IOWA

CITY           SKY/WX    TMP DP  RH WIND       PRES   REMARKS
CARROLL *      CLOUDY    32  32 100 SE8       30.14F FOG     WCI  25
CHEROKEE *     MIX PCPN  31  31 100 E5        30.14F WCI  26
DENISON *      CLOUDY    32  32 100 E5        30.11F FOG     WCI  27
LE MARS *      CLOUDY    30  28  93 SE7       30.14F FOG     WCI  23
ORANGE CITY *  CLOUDY    28  27  93 SE3       30.13S
SHELDON *      CLOUDY    28  27  93 E6        30.12F WCI  22
SIOUX CITY     FRZ RAIN  32  30  92 SE5       30.14R FOG     WCI  27
SPENCER        CLOUDY    27  23  85 E3        30.15S
STORM LAKE *   CLOUDY    30  28  93 SE8       30.13S FOG     WCI  23
$$

IAZ055>058-069>071-079>083-090>094-160900-
   SOUTHWEST IOWA

CITY           SKY/WX    TMP DP  RH WIND       PRES   REMARKS
ATLANTIC *     CLOUDY    32  32 100 E5        30.13R WCI  27
AUDUBON *      MIX PCPN  32  28  86 E3        30.14F
CLARINDA *     CLOUDY    32  32 100 E7        30.12F WCI  26
COUNCIL BLFS * CLOUDY    32  32 100 E6        30.11S FOG     WCI  26
CRESTON *      CLOUDY    30  32 100 E13       30.12F FOG     WCI  20
HARLAN  *      CLOUDY    32  32 100 E6        30.16S WCI  26
LAMONI         FOG       31  30  96 E6        30.12S VSB 3/4 WCI  25
RED OAK *      CLOUDY    32  32 100 E7        30.12F WCI  26
SHENANDOAH *   CLOUDY    32  32 100 NE6       30.11F FOG     WCI  26
$$

IAZ047>049-059>061-072>074-084-160900-
   CENTRAL IOWA

CITY           SKY/WX    TMP DP  RH WIND       PRES   REMARKS
AMES           FRZ RAIN  30  30 100 SE9       30.18F FOG     WCI  22
ANKENY *       MIX PCPN  30  30 100 MISG      30.18F
BOONE *        MIX PCPN  30  30 100 MISG      30.16S
CHARITON *     MIX PCPN  30  30 100 E9        30.15S WCI  22
DES MOINES     FRZ RAIN  31  29  92 E7        30.17F FOG     WCI  24
GRINNELL*      MIX PCPN  29  28  96 E7        30.20S WCI  22
KNOXVILLE *    CLOUDY    30  28  93 E9        30.16F FOG     WCI  22
MARSHALLTOWN   MIX PCPN  29  27  92 SE10      30.20R FOG     WCI  20
NEWTON *       CLOUDY    30  28  93 E8        30.18F FOG     WCI  23
PELLA *        MIX PCPN  31  29  95 E6        30.20F WCI  25
PERRY *        DRIZZLE   31  31  99 E7        30.16F WCI  25
$$

IAZ004>006-015-016-023>025-035-036-160900-
   NORTH CENTRAL IOWA

CITY           SKY/WX    TMP DP  RH WIND       PRES   REMARKS
ALGONA *       MIX PCPN  28  28 100 SE8       30.17S WCI  20
CLARION *      CLOUDY    30  30 100 SE9       30.18R FOG     WCI  22
ESTHERVILLE    CLOUDY    24  22  91 SE7       30.15F WCI  16
FORT DODGE *   CLOUDY    30  27  86 SE7       30.17S WCI  23
MASON CITY     FRZ RAIN  26  21  81 SE7       30.20F WCI  18
FOREST CITY *  MIX PCPN  27  23  86 SE5       30.19S WCI  21
WEBSTER CITY * CLOUDY    30  30 100 SE9       30.15F FOG     WCI  22
IOWA FALLS *   MIX PCPN  30  28  92 E8        30.19S WCI  23
$$

IAZ007>011-017>019-026>030-037>042-050>054-066-160900-
   NORTHEAST IOWA

CITY           SKY/WX    TMP DP  RH WIND       PRES   REMARKS
CEDAR RAPIDS   FRZ RAIN  29  26  89 E7        30.22R FOG     WCI  22
CHARLES CITY * MIX PCPN  27  21  80 SE9       30.22R WCI  17
CLINTON *      LGT SNOW  31  28  89 E6        30.26R FOG     WCI  25
DECORAH *      CLOUDY    25  19  80 CALM      30.22S
DUBUQUE        CLOUDY    28  21  75 E6        30.24R WCI  22
MONTICELLO *   MIX PCPN  30  25  80 E7        30.24R WCI  23
OELWEIN *      MIX PCPN  28  25  86 SE7       30.23R WCI  21
WATERLOO       FRZ RAIN  29  25  85 SE7       30.22S FOG     WCI  22
$$

IAZ064-065-067-068-078-160900-
   EAST CENTRAL IOWA

CITY           SKY/WX    TMP DP  RH WIND       PRES   REMARKS
DAVENPORT      CLOUDY    31  26  82 SE7       30.25R WCI  24
IOWA CITY      MIX PCPN  31  28  89 E6        30.25S FOG     WCI  25
MUSCATINE *    CLOUDY    32  30  93 NE6       30.24F FOG     WCI  26
QUAD CITIES    CLOUDY    33  27  78 E7        30.24R HAZE    WCI  27
$$

IAZ062-063-075>077-085>089-095>099-160900-
   SOUTHEAST IOWA

CITY           SKY/WX    TMP DP  RH WIND       PRES   REMARKS
BURLINGTON     CLOUDY    32  31  96 E7        30.21S FOG     WCI  26
FAIRFIELD *    CLOUDY    30  28  93 E8        30.20R FOG     WCI  23
FORT MADISON * FOG       32  28  86 E5        30.21S VSB 3/4 WCI  27
KEOKUK *       FOG       32  32 100 E6        30.19F VSB 1/2 WCI  26
OSKALOOSA *    LGT RAIN  30  29  95 E9        30.20S WCI  22
CENTERVILLE *  CLOUDY    30  30 100 CALM      30.16F FOG
OTTUMWA        FRZ RAIN  30  28  92 E10       30.18S FOG     WCI  21
WASHINGTON *   CLOUDY    32  30  93 E8        30.23S FOG     WCI  25
$$

ABBREVIATIONS USED IN REMARKS
   TC - TEMPERATURES IN CELSIUS
  WCI - WIND CHILL INDEX
   HX - HEAT INDEX
  VSB - VISIBILITY
$$





USA.gov is the U.S. government's official web portal to all federal, state and local government web resources and services.